Theta_e
296 295 295 296 296 295 295 295 295 295 295 295 295 296 294 296 296 294 298 302 302 303 304 303 307 307 307 309 310 312 315 318 315 318 318 318 319 318 319 320 320 321 320 319 317 319 322 319 318 318 316 316 318 316
295 295 296 296 296 296 295 295 295 295 295 295 295 296 295 294 296 295 294 297 300 301 302 303 303 303 303 306 309 308 312 313 322 315 314 314 317 315 315 319 318 321 317 318 317 318 317 319 317 318 319 318 317 317
294 294 295 295 296 296 296 296 295 295 294 294 295 294 294 294 295 297 296 295 298 301 299 300 300 302 302 300 302 302 311 320 315 313 319 317 316 313 317 316 320 320 317 317 318 320 321 322 320 320 319 319 318 318
294 294 294 294 295 296 296 296 295 296 295 294 294 295 295 296 295 297 296 294 296 299 301 301 302 302 303 306 307 303 307 315 313 313 315 316 315 315 315 315 316 318 318 319 319 321 322 320 320 319 319 319 318 317
294 295 295 295 295 295 295 296 296 295 296 294 295 296 295 296 296 296 295 294 295 297 300 301 299 300 301 302 304 307 307 307 306 312 314 316 316 313 311 311 313 318 316 318 319 322 321 321 320 320 320 319 318 318
295 294 294 293 294 295 295 295 296 296 296 295 294 296 295 295 296 295 296 301 299 299 301 301 302 300 300 301 305 308 309 310 309 313 314 316 318 316 313 312 314 320 320 321 320 321 323 323 322 320 319 319 318 317
295 294 294 294 294 295 295 296 295 296 295 294 294 296 295 295 295 295 295 301 301 301 303 302 302 303 305 306 305 306 311 310 312 313 314 314 315 316 311 312 316 319 319 319 319 321 322 322 321 319 319 318 317 316
292 294 294 295 295 295 296 296 296 296 295 295 295 295 295 295 295 295 295 297 298 299 302 302 301 304 307 309 313 313 313 313 313 314 314 313 313 314 312 314 317 319 319 319 319 321 321 323 321 319 317 317 315 314
294 295 295 295 295 295 296 296 296 295 295 295 295 295 295 294 294 295 298 295 295 299 301 302 302 303 306 310 311 313 313 310 312 310 311 313 310 312 313 316 317 318 319 319 321 321 321 322 320 318 317 316 316 314
295 296 296 295 295 295 295 296 296 295 295 295 295 295 295 296 299 300 300 299 299 300 301 300 302 300 303 304 309 311 312 311 311 310 313 311 313 313 315 316 318 318 318 319 321 319 320 321 320 319 317 317 317 316
296 295 295 295 295 296 296 296 296 295 295 295 294 295 296 298 299 300 300 300 300 300 301 301 301 300 301 304 306 310 309 311 314 310 311 309 308 312 313 313 316 316 318 318 317 318 318 318 320 319 317 317 316 315
296 295 295 295 295 296 296 296 296 296 295 295 295 296 296 298 299 300 301 301 302 300 301 300 301 301 301 301 307 309 311 311 315 311 311 311 308 313 312 311 311 315 316 316 317 318 319 319 319 319 318 317 316 314
295 296 296 296 296 295 296 296 297 295 295 295 296 297 298 298 298 300 300 303 301 302 303 303 303 303 301 303 306 307 310 310 310 312 312 310 312 312 313 312 312 311 314 316 317 319 319 319 319 319 318 317 316 313
295 296 296 296 296 296 296 297 296 295 295 295 296 296 297 298 301 303 304 304 303 303 305 305 305 303 304 305 304 308 308 309 312 311 311 308 313 313 314 315 314 313 313 313 315 318 319 319 318 318 318 317 314 313
295 296 296 296 296 297 296 295 296 295 295 295 297 297 297 299 300 300 301 302 303 304 305 305 305 306 304 305 304 306 309 310 310 309 306 313 313 313 314 315 315 315 314 316 316 318 319 318 318 318 317 316 314 313
295 296 296 295 295 295 295 296 295 294 296 296 297 298 298 298 299 299 300 302 303 304 305 306 307 307 308 305 306 307 309 309 308 307 312 313 313 312 313 316 315 316 315 317 318 319 318 318 318 317 316 314 314 313
296 295 295 295 295 295 295 294 294 295 295 297 297 297 298 298 298 298 302 302 302 304 306 306 307 310 307 307 307 305 308 311 310 312 312 311 311 312 313 317 316 317 316 317 319 318 318 317 316 316 315 314 311 310
296 296 295 295 295 295 295 295 296 296 297 297 297 297 297 297 298 298 299 302 302 303 306 306 306 306 310 311 310 309 306 307 310 311 313 312 312 311 313 317 317 316 316 317 318 317 317 316 316 315 313 311 310 309
295 295 294 294 294 295 295 296 296 297 297 297 297 297 298 298 299 299 301 301 302 303 305 305 307 307 308 307 307 306 307 309 310 310 311 313 312 311 315 315 315 315 316 317 317 316 316 315 314 312 310 309 309 306
295 295 294 294 295 296 297 297 297 297 298 298 298 298 299 300 301 301 301 303 305 306 306 305 305 308 307 307 307 307 306 309 310 309 311 312 312 312 315 314 313 313 315 315 315 314 312 311 310 310 309 308 306 306
295 294 294 294 295 295 296 296 297 298 299 299 300 300 301 302 301 302 303 304 305 305 304 307 307 307 307 308 308 310 310 310 309 310 311 312 312 314 313 312 312 314 314 314 312 311 311 310 310 309 308 307 306 306
296 295 295 295 295 296 296 296 297 297 297 298 299 301 301 301 301 303 304 305 304 305 307 307 308 309 309 309 308 308 308 309 309 311 314 312 312 313 313 315 313 311 312 312 312 311 311 310 310 309 308 306 306 306
296 296 296 296 297 297 297 296 297 299 299 301 302 301 300 302 303 305 304 305 306 307 307 308 308 308 307 306 307 308 309 310 310 313 313 313 312 313 311 311 311 312 312 312 311 310 310 310 310 310 307 306 306 306
297 297 298 297 297 297 297 298 300 300 300 300 300 302 302 304 304 304 305 306 307 308 308 308 308 307 307 306 311 311 312 311 311 312 311 313 313 312 312 312 313 313 312 310 311 311 310 310 310 309 307 306 305 306
298 298 297 298 298 298 301 302 302 303 302 302 303 303 303 305 304 305 307 306 306 306 306 306 307 305 305 305 310 311 311 311 313 313 313 312 312 312 312 312 311 311 311 311 310 310 310 310 309 308 307 307 306 306
298 298 297 299 300 301 302 303 303 303 302 303 304 304 304 303 306 306 304 306 306 305 305 305 305 305 305 305 309 311 310 312 312 312 312 313 313 313 312 312 311 310 309 309 309 308 308 308 308 307 307 307 306 306
296 298 300 301 301 301 300 301 302 301 303 304 302 303 300 305 306 306 305 306 306 306 306 306 306 305 305 305 308 311 310 311 312 311 311 311 312 311 310 310 309 308 306 306 305 305 305 305 304 304 305 305 306 306
299 299 300 300 301 302 301 301 301 303 302 303 303 303 304 304 304 306 306 306 307 307 307 306 305 305 306 307 309 310 311 311 311 312 311 310 310 310 309 307 306 306 306 305 305 305 305 304 304 304 304 305 306 306
299 300 300 301 302 302 302 301 303 303 303 303 302 304 305 305 305 306 306 305 306 307 307 305 306 308 309 310 310 311 311 311 312 312 311 311 310 308 307 306 306 306 306 306 305 305 304 304 304 304 303 304 305 305
299 300 301 301 302 301 302 302 303 303 304 303 303 304 304 305 305 306 305 306 306 307 305 306 307 310 310 311 311 311 311 311 310 310 310 310 309 308 306 306 306 307 306 306 305 304 304 305 305 305 305 305 305 305
300 300 300 301 301 302 302 303 303 303 303 302 303 305 305 305 306 306 306 306 306 306 306 305 306 309 310 311 310 310 310 309 310 309 309 309 308 307 306 306 306 306 307 307 306 304 304 304 304 305 305 306 306 306
301 301 301 300 301 301 301 303 303 303 303 303 304 304 304 305 305 306 306 307 306 306 306 306 305 309 310 311 310 310 309 309 309 308 307 307 307 307 307 307 306 306 306 307 306 305 304 303 304 305 306 306 306 305
300 301 301 301 301 300 301 302 303 303 304 303 304 304 305 305 305 304 306 306 306 305 305 305 306 309 310 310 310 309 309 309 308 307 307 307 307 307 307 306 306 306 306 306 305 305 303 303 304 305 306 305 304 304
Wind_Speed
18 18 18 18 18 19 18 17 17 17 17 17 17 16 14 13 13 10 6 4 4 7 21 24 14 12 13 6 1 8 6 3 4 3 3 4 3 5 4 5 6 7 7 4 3 3 6 7 4 7 6 9 24 25
20 20 20 19 19 18 19 18 17 17 17 16 16 15 15 13 12 12 11 5 9 14 17 18 22 23 25 18 11 5 4 5 1 2 1 2 2 1 5 4 2 2 7 6 7 6 5 8 5 10 15 20 23 25
22 22 22 21 21 20 19 19 18 17 17 16 16 15 14 12 11 12 16 11 12 11 25 21 16 9 14 23 23 10 6 2 4 11 1 1 4 4 4 5 4 1 5 4 4 4 5 9 9 16 16 17 22 22
23 22 22 22 21 20 19 18 18 17 17 15 14 14 14 13 12 13 17 11 10 7 6 10 9 11 8 10 14 25 24 6 3 15 2 1 2 4 4 3 5 5 9 6 1 1 4 11 16 22 20 19 21 19
25 25 25 24 23 21 19 18 18 17 17 16 14 14 13 13 13 17 17 12 12 10 5 17 35 17 12 16 21 23 23 27 23 4 1 3 4 0 1 1 2 7 7 5 5 16 15 17 23 24 24 24 22 21
25 25 26 24 23 22 21 19 20 19 17 16 15 13 13 12 14 15 4 3 11 10 6 4 12 19 15 12 15 23 22 22 13 7 6 4 4 1 1 3 5 12 10 14 6 11 27 6 25 27 25 24 24 21
27 26 25 25 25 24 22 21 19 18 16 14 13 13 13 12 14 12 5 5 11 8 5 7 9 7 14 9 17 19 22 21 14 9 5 3 2 2 1 2 5 9 10 14 11 14 13 14 23 28 26 24 21 16
28 27 28 27 27 24 22 20 18 16 14 12 12 13 14 13 17 22 14 15 14 6 4 3 5 8 10 3 7 12 14 15 14 9 4 4 4 6 4 11 11 10 10 8 13 16 14 21 15 28 26 26 24 20
26 29 30 27 24 23 22 19 17 14 11 10 11 11 14 14 7 4 7 10 12 11 4 4 2 4 14 6 3 5 8 2 4 4 6 5 3 6 7 14 22 18 15 14 15 13 12 18 24 29 29 27 23 20
28 27 27 26 24 21 20 18 16 13 9 8 8 5 4 2 9 5 5 6 8 7 7 4 5 4 9 9 5 0 2 3 3 5 8 4 10 15 12 15 21 24 20 22 21 18 21 24 28 33 34 28 22 18
26 27 25 22 20 19 18 18 16 12 10 7 4 5 5 9 3 4 4 4 5 3 7 9 17 8 9 2 3 3 2 0 3 3 4 3 3 12 33 28 20 19 22 21 20 21 22 21 32 34 32 27 22 18
22 23 19 15 14 14 17 17 17 17 8 6 4 7 7 2 4 3 3 4 5 5 4 5 8 10 7 9 3 2 1 1 4 1 1 3 4 9 22 35 41 33 23 22 26 25 24 24 25 30 28 25 22 17
17 16 13 7 10 13 15 18 19 12 11 5 3 3 3 4 3 5 4 2 3 4 3 4 3 4 8 9 4 3 4 4 1 1 3 4 7 10 14 25 33 41 36 24 28 29 28 26 25 27 26 23 19 16
11 10 8 2 6 9 12 16 16 16 8 4 3 3 3 4 3 0 2 2 7 8 12 10 7 8 6 3 3 4 4 3 2 2 5 3 7 13 9 5 14 26 35 33 25 30 30 29 28 27 24 22 19 16
7 4 4 5 4 8 13 14 15 16 5 3 3 3 4 3 4 13 12 8 7 11 13 8 6 11 3 3 3 1 1 3 5 5 4 3 11 14 15 10 9 11 20 28 32 34 33 31 30 30 28 23 17 16
9 4 11 11 10 10 13 14 14 10 2 3 4 3 10 7 6 8 12 8 8 13 7 2 2 2 3 3 3 6 4 5 3 3 9 11 12 14 15 16 13 11 17 26 33 38 34 33 31 30 27 22 18 17
2 8 7 8 10 11 11 11 8 4 3 3 6 12 19 18 15 14 9 8 9 10 2 1 1 4 1 2 3 2 1 2 12 18 15 14 18 16 16 17 14 17 23 31 41 37 34 32 30 30 27 22 18 15
6 8 7 6 7 10 8 3 3 3 6 10 7 14 11 14 17 18 20 11 9 4 4 2 1 3 2 1 1 2 5 11 13 13 16 15 15 11 13 14 10 22 33 39 42 39 36 33 31 29 24 22 19 15
4 5 6 7 7 3 3 3 4 4 10 9 13 19 17 18 21 16 12 14 10 5 3 5 3 3 2 6 8 6 9 6 16 17 18 15 12 10 8 9 17 30 39 44 42 37 34 31 28 25 22 19 15 15
1 3 5 6 5 2 3 3 4 5 5 4 10 13 12 10 11 13 15 6 1 2 3 2 3 5 3 4 5 4 13 10 11 14 15 9 6 3 5 16 24 33 37 35 33 35 32 27 22 20 17 13 14 20
2 2 4 4 4 4 4 3 4 5 6 6 11 10 7 10 10 5 3 1 2 3 3 6 12 14 10 6 8 8 10 10 11 13 17 11 8 3 13 24 31 37 42 39 37 32 27 24 24 19 15 12 14 18
4 4 3 4 3 3 4 5 5 7 6 8 10 5 6 4 4 3 2 2 3 3 4 9 9 7 5 6 9 10 11 9 10 10 3 5 10 11 21 27 34 37 37 34 30 25 21 22 21 17 14 13 17 17
4 4 4 4 4 4 4 4 4 4 3 3 4 3 3 2 2 2 3 3 3 7 10 4 4 3 5 9 13 12 7 3 4 1 5 19 19 17 27 31 33 31 28 23 19 22 21 19 18 17 16 15 19 19
8 3 2 3 5 3 3 3 4 4 3 3 2 3 2 1 4 3 1 4 7 7 7 5 3 4 8 12 9 6 3 1 1 11 14 13 19 21 24 26 21 18 19 20 18 16 15 17 19 19 19 17 18 18
4 3 3 5 5 3 3 2 3 3 3 3 2 3 2 2 2 1 1 3 4 8 6 9 3 10 12 11 8 8 4 5 12 21 22 27 29 30 26 24 22 19 14 16 18 16 17 19 22 22 22 16 14 17
3 3 3 4 4 2 1 2 3 2 2 2 2 4 3 2 4 3 3 4 8 7 10 9 11 13 15 12 2 2 9 11 15 20 25 25 21 18 21 21 19 17 14 8 12 17 20 21 22 22 21 20 16 16
2 4 3 6 8 9 5 4 4 2 3 3 3 4 2 3 3 1 6 6 7 8 12 11 14 19 19 9 4 4 7 8 17 17 14 16 16 16 15 18 19 15 13 11 10 10 14 17 16 15 17 19 19 20
4 3 2 12 6 4 3 3 3 3 2 6 3 6 3 2 1 2 4 6 8 9 13 16 19 20 11 3 2 3 7 10 6 9 12 14 13 11 13 13 12 14 14 11 8 8 9 11 12 12 17 18 20 21
4 6 6 6 3 3 2 2 1 3 5 4 3 3 2 3 5 8 5 7 8 9 13 20 22 10 7 3 5 7 9 10 9 7 8 15 15 14 12 11 13 14 12 11 10 10 11 9 11 14 15 18 20 21
2 9 3 3 2 2 5 4 5 6 5 3 2 2 1 4 6 6 5 8 10 7 11 20 18 10 9 5 9 10 6 6 8 10 12 14 14 14 12 10 10 10 10 9 11 13 15 15 15 15 16 18 21 20
6 3 3 2 3 4 11 8 6 6 1 1 2 3 3 2 4 10 9 7 10 10 12 19 18 6 6 3 5 7 11 13 12 10 11 13 13 12 9 8 7 7 9 6 8 11 15 15 15 16 15 17 16 26
3 2 2 2 4 9 9 5 4 4 3 3 3 3 1 3 6 10 9 3 8 13 21 25 11 2 2 4 10 14 15 14 15 13 14 16 10 8 6 4 3 5 6 7 9 12 10 13 18 17 18 25 28 28
6 6 4 3 2 3 3 5 2 4 3 3 3 2 3 5 7 11 9 5 12 19 22 15 6 9 4 9 12 16 14 13 15 14 13 9 5 4 3 2 2 5 8 10 12 13 13 18 21 22 25 22 27 31
Wind_Direction
309 309 310 311 314 314 315 316 316 315 317 321 325 324 322 323 327 325 283 278 313 264 272 269 248 264 287 291 279 325 342 331 21 89 141 208 165 215 125 169 174 160 149 175 99 98 278 195 97 173 198 155 179 185
304 302 302 304 306 308 310 308 309 311 313 315 318 318 319 313 320 318 298 254 273 270 265 277 273 269 266 260 285 298 277 287 20 84 15 92 223 101 152 207 90 169 177 180 167 206 240 192 230 207 173 168 183 185
303 300 298 298 298 302 304 305 300 303 306 308 310 314 315 313 307 314 304 312 310 289 296 275 280 285 250 248 247 230 254 209 117 42 140 246 246 126 159 232 143 210 153 128 96 238 232 211 203 179 176 174 176 179
301 299 297 296 297 296 297 297 301 295 299 300 304 313 314 312 302 301 297 299 286 291 273 288 271 268 258 244 216 223 227 224 313 334 294 194 221 186 222 200 163 191 143 143 186 347 119 177 178 175 174 174 173 178
297 296 295 293 291 290 291 293 297 295 289 291 295 304 306 305 303 298 296 279 240 242 293 292 302 295 241 237 232 230 238 242 254 273 230 235 250 31 271 65 220 189 166 151 209 190 185 204 185 184 182 185 185 181
295 296 296 292 290 287 282 282 287 292 283 284 286 291 294 296 296 314 303 257 203 222 284 296 307 292 285 252 219 220 222 225 207 196 219 242 263 307 260 217 256 194 187 198 182 203 206 215 195 194 196 189 186 186
296 296 295 292 291 286 281 275 278 285 280 276 276 284 285 289 285 273 249 183 179 218 251 296 292 286 311 286 208 211 221 210 203 204 225 264 310 336 200 210 225 185 194 207 213 194 188 206 194 195 199 187 178 175
298 295 297 291 286 281 276 268 267 276 268 272 274 280 285 284 277 276 280 236 251 261 260 267 273 306 359 262 183 184 174 188 199 198 166 181 245 195 248 228 221 180 158 174 198 202 225 207 197 190 190 178 175 178
300 299 293 287 281 273 265 260 253 260 254 260 276 281 282 270 267 334 312 214 224 219 281 242 254 274 344 1 301 170 165 119 173 162 199 175 222 225 204 207 216 194 179 172 177 189 187 188 188 188 183 180 184 184
306 298 293 286 277 266 252 245 237 235 240 248 264 264 258 253 289 298 201 164 183 217 230 251 235 267 339 342 333 28 132 161 150 230 195 214 236 236 252 228 218 210 197 189 176 164 175 182 189 191 194 194 198 198
304 301 296 284 263 249 237 226 215 212 214 212 218 237 267 304 283 211 219 187 203 237 219 230 224 236 271 240 276 351 209 107 160 230 176 239 271 221 233 239 237 224 205 207 219 223 220 218 196 194 194 196 199 198
305 311 301 282 252 226 215 209 197 201 196 190 215 271 281 234 228 239 224 202 200 226 222 200 227 216 228 226 226 289 186 276 218 108 154 263 246 216 229 225 226 233 238 232 224 219 211 209 207 200 197 197 200 197
325 326 309 266 211 209 203 199 196 187 184 191 238 259 206 214 245 202 221 206 224 209 240 247 245 232 203 212 229 173 185 218 320 162 234 233 4 332 258 238 232 226 230 232 219 216 214 203 199 200 195 196 193 191
339 337 350 26 174 178 191 194 167 170 171 201 197 244 209 228 242 103 282 248 270 264 304 291 226 196 209 172 198 176 214 127 194 190 241 231 343 359 343 280 255 242 232 234 235 221 206 195 195 196 196 193 193 191
347 4 44 105 161 166 135 144 165 167 181 196 218 239 235 240 323 297 287 296 319 316 301 294 244 191 191 221 206 107 139 225 201 232 236 263 333 333 331 301 260 248 231 221 223 205 192 189 192 193 198 198 196 198
26 95 107 111 110 120 142 150 157 170 226 232 235 260 263 278 246 288 297 286 329 333 329 276 302 195 209 192 145 207 172 209 244 246 303 310 310 322 320 305 255 236 217 217 201 188 186 189 189 192 194 196 198 197
107 92 88 120 130 132 135 148 157 200 237 237 247 245 259 278 275 291 282 318 344 354 267 250 221 234 166 211 213 136 145 338 320 311 298 304 300 307 318 293 257 215 204 204 190 184 183 187 187 189 185 184 184 184
93 110 114 122 149 159 162 157 194 231 244 243 247 268 275 276 284 290 297 277 305 300 305 262 293 252 216 13 73 241 271 297 316 308 313 299 298 290 310 285 224 200 196 192 182 182 183 182 182 179 177 173 172 175
91 120 137 149 151 165 208 224 224 254 244 262 268 276 277 283 288 281 262 297 278 267 280 270 228 247 197 191 228 273 317 317 317 323 319 307 277 289 306 223 190 186 188 177 176 175 172 171 173 171 170 169 173 170
87 165 165 178 199 284 253 237 227 262 269 281 285 280 278 261 280 265 275 281 250 214 238 244 244 273 233 234 212 60 7 307 293 314 318 302 234 284 225 184 173 172 165 157 159 161 160 158 161 159 153 154 166 166
322 202 196 217 261 258 270 267 248 253 287 273 280 292 277 273 287 294 299 291 233 219 247 256 283 297 294 236 260 284 311 295 294 293 310 293 210 203 160 161 157 157 159 161 159 158 157 155 151 146 135 133 153 161
335 286 284 248 252 252 263 249 253 286 279 271 294 250 274 283 277 272 207 213 258 271 265 310 336 336 333 308 311 308 304 296 289 304 315 172 173 153 159 152 166 164 157 155 153 151 152 152 152 149 140 140 157 169
320 292 246 235 238 237 260 235 247 245 249 270 291 273 250 261 333 1 357 312 293 314 309 332 6 27 5 325 310 306 308 307 331 86 147 155 157 157 157 165 164 151 144 144 148 146 146 149 155 157 154 149 159 163
309 262 252 253 218 240 243 235 229 259 268 266 248 274 288 138 263 197 201 329 345 13 18 21 4 341 334 338 347 347 337 215 147 109 108 128 154 153 151 146 147 153 145 140 149 152 158 166 170 171 163 150 161 168
289 263 247 254 227 238 232 210 204 238 261 257 298 293 301 330 48 325 117 266 61 52 38 23 350 339 340 344 2 63 56 88 116 139 152 142 147 149 149 152 157 155 156 164 168 173 174 176 177 178 174 168 171 175
270 268 224 296 316 256 271 263 234 247 243 277 287 319 337 31 31 2 298 332 2 10 13 16 356 349 352 354 301 116 62 86 85 133 142 143 143 143 148 146 146 150 160 174 174 173 172 173 178 182 185 186 182 183
290 291 308 318 303 297 303 316 323 347 3 359 333 340 20 60 44 191 284 308 314 340 348 353 341 339 336 337 207 187 175 152 98 103 141 152 147 140 138 155 154 150 140 139 133 150 166 169 172 176 182 186 187 187
268 283 258 306 315 295 289 319 4 353 314 335 337 23 43 38 336 320 308 334 340 333 341 341 341 337 343 85 163 228 190 178 152 107 120 138 124 122 122 119 113 118 123 127 123 132 159 165 166 170 173 173 172 173
265 287 287 302 319 300 273 259 324 344 342 13 74 325 330 36 17 355 332 338 332 338 341 342 355 10 41 85 92 131 123 129 145 159 169 142 134 127 122 119 124 127 128 121 110 119 137 140 142 146 157 168 171 171
266 342 296 290 305 284 321 339 350 356 347 2 49 27 34 45 8 18 358 314 331 345 358 0 360 21 41 94 129 117 126 154 164 151 150 148 142 132 131 134 141 151 152 147 135 128 140 142 135 140 150 164 165 165
293 289 278 277 282 326 339 325 338 352 346 10 47 42 1 17 76 50 36 32 13 12 10 357 356 11 43 121 120 131 146 147 160 139 127 136 143 137 147 167 175 177 178 165 149 133 135 149 154 155 153 150 154 164
286 259 348 308 317 321 344 5 15 10 1 347 326 319 286 105 86 38 13 323 1 4 349 344 345 136 64 117 153 152 148 156 142 120 114 119 133 152 150 146 164 193 199 180 170 154 143 161 164 162 159 148 157 163
294 287 259 261 268 289 329 337 346 355 343 325 327 317 75 85 69 22 36 41 10 1 352 349 147 147 128 138 151 158 152 141 121 111 105 91 103 113 68 75 161 180 186 190 179 162 155 158 164 165 151 136 160 158